QPF
0.00 0.00 0.00 0.01 0.01 0.01 0.01 0.01 0.01 0.02 0.02 0.01 0.01 0.02 0.03 0.02 0.02 0.02 0.03 0.05 0.05 0.05 0.05 0.05 0.06 0.06 0.05 0.03 0.03 0.04 0.04 0.04 0.04 0.05 0.05 0.07 0.07 0.10 0.11 0.12 0.14 0.14 0.10
0.00 0.00 0.00 0.01 0.01 0.00 0.01 0.01 0.01 0.02 0.02 0.01 0.01 0.02 0.02 0.03 0.03 0.02 0.02 0.03 0.04 0.05 0.06 0.08 0.08 0.07 0.05 0.04 0.04 0.05 0.05 0.05 0.05 0.05 0.05 0.06 0.06 0.09 0.11 0.13 0.13 0.09 0.07
0.00 0.00 0.00 0.00 0.01 0.00 0.00 0.01 0.02 0.01 0.01 0.01 0.01 0.02 0.02 0.02 0.03 0.02 0.02 0.03 0.04 0.05 0.05 0.06 0.07 0.07 0.05 0.04 0.04 0.05 0.05 0.06 0.06 0.05 0.05 0.04 0.05 0.06 0.10 0.12 0.12 0.10 0.08
0.00 0.00 0.00 0.00 0.00 0.01 0.00 0.00 0.01 0.01 0.00 0.00 0.01 0.01 0.01 0.02 0.02 0.02 0.02 0.02 0.04 0.05 0.04 0.05 0.07 0.08 0.07 0.06 0.07 0.07 0.06 0.06 0.06 0.05 0.05 0.05 0.05 0.05 0.06 0.09 0.12 0.12 0.11
0.01 0.01 0.01 0.01 0.01 0.01 0.01 0.01 0.02 0.02 0.01 0.01 0.01 0.02 0.02 0.02 0.03 0.03 0.02 0.02 0.03 0.03 0.04 0.06 0.08 0.10 0.10 0.09 0.09 0.08 0.10 0.08 0.06 0.06 0.06 0.06 0.07 0.07 0.06 0.07 0.10 0.13 0.13
0.01 0.01 0.02 0.01 0.02 0.01 0.02 0.02 0.02 0.02 0.01 0.01 0.01 0.02 0.01 0.02 0.03 0.02 0.03 0.02 0.03 0.03 0.03 0.04 0.05 0.07 0.09 0.10 0.10 0.10 0.10 0.09 0.07 0.07 0.07 0.06 0.07 0.07 0.05 0.05 0.05 0.07 0.07
0.01 0.01 0.02 0.02 0.03 0.02 0.02 0.03 0.02 0.01 0.01 0.01 0.01 0.02 0.01 0.01 0.02 0.02 0.03 0.03 0.02 0.03 0.03 0.04 0.05 0.06 0.07 0.08 0.08 0.08 0.08 0.08 0.08 0.09 0.07 0.06 0.06 0.07 0.06 0.05 0.05 0.04 0.04
0.01 0.02 0.02 0.02 0.01 0.02 0.03 0.03 0.02 0.02 0.02 0.02 0.01 0.01 0.01 0.01 0.01 0.02 0.02 0.02 0.02 0.01 0.02 0.03 0.04 0.04 0.03 0.03 0.03 0.03 0.04 0.05 0.07 0.09 0.08 0.07 0.06 0.06 0.05 0.05 0.05 0.04 0.05
0.01 0.03 0.04 0.03 0.01 0.01 0.03 0.06 0.08 0.05 0.02 0.02 0.02 0.02 0.02 0.01 0.02 0.03 0.02 0.01 0.02 0.02 0.01 0.02 0.02 0.01 0.01 0.02 0.02 0.02 0.03 0.03 0.04 0.06 0.08 0.08 0.07 0.06 0.07 0.07 0.07 0.06 0.05
0.01 0.01 0.03 0.04 0.04 0.02 0.02 0.04 0.06 0.04 0.02 0.02 0.02 0.02 0.02 0.02 0.01 0.01 0.01 0.01 0.01 0.01 0.01 0.01 0.01 0.01 0.01 0.01 0.02 0.03 0.03 0.04 0.04 0.05 0.07 0.08 0.09 0.08 0.07 0.08 0.08 0.07 0.04
0.02 0.02 0.02 0.03 0.04 0.05 0.02 0.03 0.03 0.02 0.01 0.01 0.01 0.02 0.02 0.03 0.02 0.02 0.02 0.01 0.01 0.01 0.01 0.01 0.01 0.01 0.01 0.01 0.02 0.02 0.02 0.04 0.04 0.05 0.07 0.08 0.08 0.06 0.05 0.05 0.05 0.04 0.03
0.03 0.04 0.03 0.03 0.02 0.05 0.03 0.02 0.03 0.04 0.04 0.04 0.04 0.03 0.03 0.03 0.03 0.03 0.03 0.02 0.02 0.02 0.02 0.02 0.02 0.01 0.01 0.02 0.02 0.02 0.03 0.03 0.04 0.04 0.06 0.06 0.06 0.05 0.04 0.04 0.04 0.03 0.03
0.03 0.05 0.05 0.03 0.03 0.02 0.03 0.04 0.03 0.04 0.06 0.08 0.10 0.08 0.06 0.05 0.05 0.05 0.05 0.05 0.05 0.04 0.04 0.03 0.03 0.03 0.03 0.03 0.03 0.04 0.04 0.04 0.03 0.04 0.05 0.06 0.05 0.05 0.04 0.04 0.03 0.03 0.03
0.02 0.03 0.04 0.03 0.03 0.04 0.05 0.06 0.04 0.04 0.05 0.06 0.08 0.09 0.08 0.07 0.07 0.07 0.06 0.05 0.05 0.05 0.04 0.04 0.05 0.05 0.05 0.05 0.05 0.05 0.07 0.06 0.06 0.06 0.06 0.06 0.06 0.05 0.04 0.05 0.04 0.03 0.03
0.02 0.02 0.02 0.03 0.04 0.07 0.07 0.05 0.04 0.04 0.04 0.05 0.07 0.08 0.06 0.05 0.04 0.04 0.04 0.05 0.06 0.05 0.05 0.03 0.03 0.04 0.04 0.04 0.04 0.05 0.06 0.07 0.07 0.07 0.06 0.06 0.07 0.06 0.06 0.06 0.05 0.05 0.04
0.02 0.02 0.02 0.02 0.04 0.07 0.09 0.06 0.04 0.03 0.03 0.03 0.02 0.02 0.03 0.03 0.03 0.03 0.03 0.03 0.03 0.03 0.02 0.02 0.02 0.03 0.03 0.03 0.04 0.04 0.04 0.05 0.05 0.07 0.09 0.11 0.14 0.15 0.14 0.12 0.10 0.08 0.05
0.03 0.01 0.01 0.01 0.03 0.06 0.10 0.07 0.04 0.02 0.02 0.01 0.02 0.02 0.02 0.02 0.02 0.03 0.03 0.02 0.02 0.03 0.03 0.03 0.03 0.03 0.02 0.02 0.03 0.03 0.03 0.05 0.07 0.09 0.11 0.13 0.13 0.16 0.16 0.14 0.11 0.08 0.05
0.06 0.02 0.01 0.02 0.02 0.03 0.05 0.05 0.04 0.02 0.02 0.03 0.04 0.04 0.04 0.03 0.03 0.02 0.02 0.02 0.02 0.03 0.02 0.02 0.02 0.02 0.02 0.03 0.03 0.04 0.05 0.05 0.09 0.12 0.13 0.14 0.15 0.16 0.17 0.15 0.11 0.09 0.07
0.05 0.03 0.03 0.03 0.03 0.02 0.03 0.03 0.03 0.03 0.04 0.04 0.04 0.05 0.04 0.03 0.03 0.02 0.02 0.02 0.02 0.02 0.01 0.02 0.02 0.02 0.03 0.04 0.03 0.04 0.04 0.05 0.08 0.11 0.11 0.12 0.12 0.12 0.13 0.12 0.09 0.06 0.04
0.03 0.03 0.03 0.03 0.03 0.04 0.04 0.03 0.03 0.03 0.02 0.02 0.02 0.02 0.02 0.02 0.02 0.02 0.03 0.03 0.03 0.03 0.04 0.04 0.04 0.04 0.04 0.05 0.05 0.05 0.04 0.05 0.06 0.06 0.06 0.07 0.06 0.06 0.07 0.06 0.05 0.04 0.03
0.04 0.03 0.02 0.02 0.02 0.02 0.03 0.03 0.02 0.01 0.01 0.01 0.01 0.01 0.01 0.02 0.02 0.03 0.04 0.05 0.05 0.05 0.05 0.05 0.05 0.05 0.05 0.06 0.06 0.06 0.06 0.06 0.05 0.05 0.05 0.06 0.05 0.06 0.07 0.06 0.04 0.04 0.04
0.03 0.03 0.03 0.02 0.02 0.01 0.01 0.01 0.01 0.01 0.01 0.01 0.01 0.01 0.02 0.03 0.02 0.02 0.03 0.04 0.05 0.06 0.06 0.07 0.06 0.06 0.06 0.06 0.06 0.05 0.06 0.06 0.05 0.05 0.05 0.05 0.06 0.07 0.07 0.06 0.05 0.05 0.04
0.04 0.04 0.04 0.03 0.02 0.01 0.01 0.00 0.00 0.01 0.01 0.01 0.01 0.02 0.02 0.03 0.03 0.03 0.03 0.04 0.05 0.04 0.04 0.05 0.05 0.06 0.06 0.05 0.06 0.06 0.05 0.05 0.04 0.04 0.05 0.06 0.07 0.08 0.08 0.09 0.09 0.08 0.08
0.05 0.04 0.04 0.03 0.03 0.02 0.01 0.01 0.01 0.01 0.01 0.01 0.01 0.02 0.02 0.02 0.03 0.03 0.04 0.04 0.05 0.05 0.05 0.05 0.04 0.03 0.04 0.05 0.05 0.04 0.04 0.03 0.03 0.04 0.04 0.04 0.06 0.08 0.07 0.08 0.08 0.07 0.06
0.05 0.04 0.04 0.04 0.03 0.02 0.02 0.02 0.02 0.02 0.02 0.02 0.01 0.02 0.03 0.03 0.04 0.05 0.05 0.06 0.06 0.06 0.06 0.06 0.05 0.05 0.05 0.05 0.06 0.05 0.04 0.04 0.04 0.04 0.03 0.03 0.03 0.04 0.06 0.05 0.05 0.05 0.05
0.03 0.03 0.03 0.03 0.03 0.03 0.03 0.03 0.03 0.03 0.03 0.02 0.02 0.03 0.03 0.04 0.05 0.06 0.07 0.07 0.08 0.10 0.10 0.11 0.12 0.12 0.13 0.14 0.14 0.13 0.10 0.09 0.08 0.06 0.05 0.03 0.03 0.03 0.04 0.06 0.05 0.03 0.04
MSLP
1008.44 1008.77 1009.05 1009.27 1009.41 1009.50 1009.57 1009.66 1009.80 1010.01 1010.29 1010.60 1010.91 1011.18 1011.40 1011.52 1011.56 1011.54 1011.49 1011.44 1011.42 1011.46 1011.56 1011.71 1011.91 1012.13 1012.35 1012.56 1012.75 1012.91 1013.05 1013.16 1013.26 1013.34 1013.39 1013.38 1013.33 1013.21 1013.02 1012.80 1012.55 1012.31 1012.10
1008.46 1008.83 1009.14 1009.36 1009.49 1009.56 1009.60 1009.68 1009.82 1010.05 1010.35 1010.71 1011.07 1011.38 1011.61 1011.72 1011.73 1011.65 1011.53 1011.41 1011.33 1011.32 1011.39 1011.54 1011.73 1011.96 1012.18 1012.40 1012.58 1012.75 1012.91 1013.05 1013.19 1013.32 1013.43 1013.49 1013.50 1013.43 1013.29 1013.07 1012.81 1012.54 1012.27
1008.63 1009.01 1009.34 1009.57 1009.70 1009.75 1009.78 1009.84 1009.98 1010.22 1010.56 1010.96 1011.35 1011.70 1011.94 1012.06 1012.04 1011.92 1011.75 1011.57 1011.44 1011.38 1011.42 1011.54 1011.72 1011.93 1012.14 1012.34 1012.52 1012.68 1012.84 1013.00 1013.17 1013.35 1013.52 1013.65 1013.73 1013.74 1013.65 1013.48 1013.24 1012.95 1012.66
1008.99 1009.37 1009.71 1009.94 1010.07 1010.12 1010.13 1010.18 1010.31 1010.56 1010.91 1011.32 1011.75 1012.12 1012.38 1012.50 1012.47 1012.34 1012.14 1011.93 1011.76 1011.67 1011.67 1011.75 1011.90 1012.08 1012.27 1012.44 1012.59 1012.73 1012.88 1013.05 1013.24 1013.46 1013.68 1013.88 1014.03 1014.11 1014.09 1013.97 1013.77 1013.51 1013.21
1009.57 1009.95 1010.29 1010.53 1010.65 1010.68 1010.68 1010.70 1010.81 1011.03 1011.37 1011.78 1012.22 1012.60 1012.88 1013.01 1013.00 1012.87 1012.66 1012.44 1012.25 1012.13 1012.10 1012.15 1012.26 1012.40 1012.54 1012.68 1012.80 1012.92 1013.05 1013.22 1013.42 1013.66 1013.92 1014.17 1014.38 1014.52 1014.56 1014.51 1014.35 1014.13 1013.85
1010.35 1010.73 1011.08 1011.32 1011.43 1011.45 1011.41 1011.39 1011.46 1011.64 1011.94 1012.33 1012.74 1013.12 1013.41 1013.56 1013.57 1013.45 1013.26 1013.04 1012.85 1012.71 1012.66 1012.67 1012.74 1012.84 1012.94 1013.04 1013.14 1013.23 1013.35 1013.51 1013.71 1013.96 1014.24 1014.51 1014.76 1014.94 1015.03 1015.02 1014.92 1014.73 1014.48
1011.27 1011.67 1012.03 1012.27 1012.38 1012.37 1012.29 1012.22 1012.22 1012.34 1012.58 1012.92 1013.30 1013.66 1013.94 1014.10 1014.13 1014.04 1013.88 1013.68 1013.49 1013.35 1013.27 1013.26 1013.29 1013.35 1013.42 1013.49 1013.56 1013.65 1013.76 1013.91 1014.11 1014.36 1014.63 1014.91 1015.15 1015.34 1015.46 1015.48 1015.41 1015.27 1015.06
1012.23 1012.67 1013.05 1013.30 1013.40 1013.37 1013.25 1013.13 1013.06 1013.10 1013.26 1013.53 1013.85 1014.18 1014.44 1014.61 1014.66 1014.60 1014.46 1014.29 1014.11 1013.97 1013.88 1013.84 1013.85 1013.89 1013.94 1013.99 1014.06 1014.14 1014.26 1014.41 1014.61 1014.84 1015.10 1015.35 1015.57 1015.74 1015.85 1015.87 1015.83 1015.71 1015.54
1013.13 1013.62 1014.03 1014.30 1014.40 1014.34 1014.19 1014.02 1013.89 1013.86 1013.95 1014.14 1014.40 1014.67 1014.91 1015.07 1015.13 1015.10 1014.99 1014.84 1014.69 1014.55 1014.46 1014.41 1014.40 1014.42 1014.47 1014.53 1014.61 1014.71 1014.84 1015.00 1015.20 1015.41 1015.63 1015.85 1016.02 1016.15 1016.22 1016.23 1016.18 1016.09 1015.95
1013.88 1014.41 1014.85 1015.14 1015.24 1015.18 1015.01 1014.81 1014.64 1014.56 1014.58 1014.71 1014.92 1015.14 1015.35 1015.50 1015.57 1015.55 1015.47 1015.35 1015.22 1015.10 1015.01 1014.96 1014.95 1014.98 1015.04 1015.12 1015.22 1015.35 1015.51 1015.69 1015.88 1016.08 1016.26 1016.42 1016.53 1016.60 1016.62 1016.59 1016.52 1016.43 1016.32
1014.39 1014.96 1015.42 1015.71 1015.82 1015.78 1015.62 1015.42 1015.25 1015.15 1015.15 1015.25 1015.41 1015.60 1015.78 1015.92 1015.99 1015.99 1015.93 1015.84 1015.73 1015.63 1015.56 1015.53 1015.53 1015.58 1015.65 1015.76 1015.90 1016.07 1016.26 1016.46 1016.65 1016.83 1016.97 1017.07 1017.11 1017.10 1017.06 1016.98 1016.89 1016.79 1016.69
1014.67 1015.24 1015.69 1015.98 1016.11 1016.09 1015.98 1015.83 1015.69 1015.62 1015.64 1015.73 1015.88 1016.06 1016.22 1016.35 1016.42 1016.44 1016.41 1016.34 1016.27 1016.20 1016.15 1016.14 1016.17 1016.24 1016.35 1016.49 1016.66 1016.86 1017.08 1017.29 1017.48 1017.64 1017.74 1017.78 1017.75 1017.68 1017.56 1017.43 1017.30 1017.19 1017.09
1014.73 1015.26 1015.68 1015.96 1016.11 1016.14 1016.09 1016.02 1015.98 1015.98 1016.05 1016.17 1016.34 1016.52 1016.68 1016.81 1016.89 1016.92 1016.91 1016.89 1016.85 1016.82 1016.82 1016.84 1016.90 1016.99 1017.12 1017.29 1017.48 1017.70 1017.93 1018.15 1018.33 1018.46 1018.52 1018.51 1018.43 1018.29 1018.11 1017.93 1017.76 1017.63 1017.53
1014.61 1015.06 1015.43 1015.70 1015.87 1015.96 1016.01 1016.06 1016.13 1016.24 1016.40 1016.59 1016.80 1016.99 1017.17 1017.30 1017.39 1017.45 1017.47 1017.48 1017.49 1017.51 1017.55 1017.60 1017.69 1017.80 1017.95 1018.12 1018.33 1018.54 1018.77 1018.97 1019.14 1019.24 1019.27 1019.21 1019.08 1018.89 1018.66 1018.43 1018.23 1018.08 1017.97
1014.37 1014.73 1015.04 1015.28 1015.48 1015.65 1015.82 1016.01 1016.22 1016.47 1016.73 1017.00 1017.26 1017.49 1017.68 1017.82 1017.93 1018.01 1018.07 1018.12 1018.18 1018.25 1018.33 1018.42 1018.53 1018.65 1018.79 1018.96 1019.14 1019.33 1019.53 1019.70 1019.84 1019.91 1019.91 1019.82 1019.65 1019.43 1019.17 1018.91 1018.68 1018.50 1018.38
1014.07 1014.33 1014.57 1014.81 1015.05 1015.31 1015.61 1015.94 1016.31 1016.69 1017.07 1017.43 1017.74 1018.00 1018.21 1018.37 1018.49 1018.58 1018.68 1018.78 1018.88 1019.00 1019.12 1019.24 1019.36 1019.47 1019.60 1019.73 1019.86 1020.01 1020.16 1020.29 1020.38 1020.43 1020.40 1020.29 1020.11 1019.87 1019.59 1019.32 1019.07 1018.87 1018.73
1013.74 1013.92 1014.12 1014.36 1014.66 1015.02 1015.45 1015.92 1016.43 1016.95 1017.43 1017.86 1018.22 1018.51 1018.73 1018.90 1019.03 1019.15 1019.27 1019.41 1019.56 1019.72 1019.87 1020.01 1020.13 1020.23 1020.31 1020.39 1020.47 1020.55 1020.63 1020.71 1020.76 1020.77 1020.73 1020.61 1020.43 1020.19 1019.92 1019.64 1019.38 1019.16 1018.99
1013.42 1013.55 1013.74 1014.01 1014.38 1014.84 1015.39 1015.99 1016.63 1017.24 1017.81 1018.30 1018.70 1019.00 1019.22 1019.39 1019.54 1019.67 1019.83 1020.00 1020.18 1020.37 1020.55 1020.69 1020.81 1020.88 1020.91 1020.93 1020.94 1020.95 1020.97 1020.98 1020.99 1020.98 1020.92 1020.81 1020.64 1020.42 1020.16 1019.89 1019.63 1019.40 1019.20
1013.13 1013.26 1013.47 1013.79 1014.23 1014.79 1015.44 1016.15 1016.88 1017.57 1018.19 1018.71 1019.13 1019.44 1019.66 1019.84 1019.99 1020.14 1020.31 1020.51 1020.72 1020.94 1021.13 1021.27 1021.37 1021.41 1021.40 1021.35 1021.29 1021.23 1021.19 1021.15 1021.12 1021.09 1021.03 1020.93 1020.79 1020.60 1020.37 1020.11 1019.85 1019.61 1019.39
1012.90 1013.06 1013.32 1013.70 1014.22 1014.86 1015.59 1016.37 1017.15 1017.89 1018.54 1019.08 1019.50 1019.81 1020.03 1020.21 1020.36 1020.53 1020.72 1020.94 1021.18 1021.40 1021.60 1021.74 1021.82 1021.83 1021.78 1021.68 1021.57 1021.46 1021.36 1021.29 1021.23 1021.18 1021.13 1021.05 1020.93 1020.77 1020.57 1020.34 1020.09 1019.84 1019.60
1012.74 1012.96 1013.29 1013.74 1014.32 1015.02 1015.80 1016.62 1017.42 1018.17 1018.83 1019.36 1019.78 1020.09 1020.32 1020.50 1020.67 1020.85 1021.06 1021.29 1021.54 1021.77 1021.97 1022.11 1022.17 1022.16 1022.08 1021.96 1021.81 1021.66 1021.53 1021.43 1021.36 1021.31 1021.26 1021.20 1021.11 1020.98 1020.81 1020.60 1020.36 1020.11 1019.86
1012.70 1012.98 1013.38 1013.88 1014.51 1015.23 1016.03 1016.85 1017.65 1018.39 1019.03 1019.56 1019.97 1020.28 1020.51 1020.71 1020.89 1021.09 1021.31 1021.56 1021.81 1022.05 1022.24 1022.37 1022.43 1022.41 1022.32 1022.19 1022.03 1021.87 1021.73 1021.62 1021.55 1021.50 1021.45 1021.40 1021.33 1021.22 1021.07 1020.88 1020.66 1020.42 1020.17
1012.77 1013.12 1013.56 1014.10 1014.74 1015.47 1016.25 1017.05 1017.82 1018.53 1019.15 1019.66 1020.07 1020.38 1020.63 1020.84 1021.05 1021.26 1021.49 1021.74 1021.99 1022.23 1022.42 1022.55 1022.60 1022.59 1022.51 1022.38 1022.23 1022.08 1021.95 1021.85 1021.77 1021.72 1021.68 1021.63 1021.56 1021.46 1021.33 1021.16 1020.95 1020.73 1020.48
1012.94 1013.34 1013.81 1014.36 1015.00 1015.70 1016.45 1017.20 1017.93 1018.60 1019.19 1019.69 1020.09 1020.42 1020.68 1020.92 1021.14 1021.36 1021.60 1021.85 1022.09 1022.31 1022.50 1022.62 1022.69 1022.68 1022.62 1022.52 1022.40 1022.27 1022.16 1022.07 1022.00 1021.94 1021.89 1021.84 1021.76 1021.66 1021.53 1021.37 1021.18 1020.98 1020.76
1013.19 1013.61 1014.09 1014.64 1015.25 1015.91 1016.61 1017.31 1017.99 1018.62 1019.18 1019.66 1020.06 1020.40 1020.68 1020.93 1021.16 1021.40 1021.63 1021.86 1022.09 1022.30 1022.47 1022.59 1022.66 1022.68 1022.65 1022.58 1022.50 1022.40 1022.31 1022.23 1022.16 1022.10 1022.03 1021.96 1021.86 1021.75 1021.62 1021.46 1021.29 1021.11 1020.92
1013.44 1013.87 1014.35 1014.88 1015.47 1016.09 1016.73 1017.38 1018.01 1018.60 1019.13 1019.60 1020.00 1020.34 1020.64 1020.90 1021.14 1021.36 1021.58 1021.80 1022.00 1022.18 1022.34 1022.46 1022.53 1022.57 1022.57 1022.54 1022.49 1022.42 1022.35 1022.28 1022.21 1022.13 1022.04 1021.94 1021.82 1021.69 1021.55 1021.40 1021.24 1021.09 1020.94
Thickness
5822 5824 5823 5822 5819 5816 5814 5812 5809 5808 5806 5803 5799 5796 5794 5795 5796 5796 5795 5794 5792 5791 5789 5788 5786 5785 5782 5780 5779 5777 5773 5772 5771 5767 5763 5764 5765 5764 5764 5762 5761 5759 5757
5819 5821 5822 5821 5819 5816 5815 5812 5810 5809 5807 5805 5802 5800 5798 5796 5796 5796 5795 5794 5792 5791 5790 5788 5786 5784 5782 5780 5778 5776 5772 5770 5770 5764 5757 5753 5754 5759 5763 5761 5759 5758 5757
5822 5821 5821 5821 5820 5817 5816 5815 5812 5810 5809 5807 5804 5801 5797 5795 5793 5793 5792 5793 5792 5791 5790 5788 5786 5784 5782 5779 5778 5776 5772 5767 5767 5767 5759 5750 5745 5750 5755 5758 5758 5757 5756
5827 5825 5823 5822 5822 5821 5820 5817 5813 5811 5809 5807 5803 5798 5793 5790 5791 5792 5792 5792 5792 5791 5790 5788 5786 5784 5782 5779 5778 5777 5774 5769 5765 5765 5764 5761 5757 5748 5745 5751 5755 5756 5755
5831 5828 5827 5826 5825 5824 5821 5818 5814 5811 5809 5807 5804 5799 5795 5793 5793 5792 5790 5790 5790 5790 5789 5788 5786 5783 5781 5779 5778 5776 5773 5771 5767 5764 5762 5760 5757 5754 5746 5742 5746 5750 5752
5833 5831 5830 5828 5825 5824 5821 5818 5813 5810 5809 5806 5803 5799 5796 5793 5791 5789 5787 5787 5787 5787 5787 5786 5784 5783 5781 5778 5776 5775 5773 5770 5768 5765 5762 5758 5754 5750 5747 5742 5741 5742 5746
5831 5829 5826 5824 5823 5821 5820 5816 5812 5809 5808 5805 5802 5800 5797 5794 5791 5788 5786 5785 5784 5783 5784 5784 5782 5781 5779 5778 5776 5773 5771 5769 5766 5763 5761 5759 5756 5754 5749 5744 5740 5739 5742
5832 5830 5829 5827 5825 5823 5819 5816 5812 5809 5807 5804 5801 5799 5797 5794 5792 5790 5788 5785 5784 5783 5783 5782 5781 5779 5778 5776 5774 5772 5770 5768 5765 5763 5760 5758 5756 5754 5750 5746 5740 5734 5734
5830 5830 5829 5828 5826 5823 5820 5817 5812 5808 5806 5804 5801 5798 5796 5794 5791 5790 5788 5786 5784 5783 5782 5780 5779 5777 5776 5774 5772 5770 5767 5766 5764 5761 5759 5757 5755 5753 5751 5747 5743 5735 5727
5828 5827 5827 5826 5825 5823 5820 5817 5813 5809 5806 5804 5801 5798 5795 5793 5791 5789 5786 5785 5783 5782 5780 5778 5776 5775 5773 5771 5769 5767 5765 5762 5760 5758 5756 5753 5752 5750 5748 5745 5742 5738 5731
5824 5823 5823 5824 5822 5821 5818 5814 5811 5807 5804 5802 5799 5796 5793 5791 5790 5787 5785 5783 5782 5780 5778 5776 5774 5772 5770 5769 5766 5763 5761 5758 5756 5755 5752 5750 5748 5746 5744 5742 5738 5735 5731
5820 5820 5819 5818 5815 5814 5813 5810 5808 5805 5803 5799 5795 5792 5790 5788 5786 5784 5783 5782 5779 5778 5775 5774 5771 5769 5767 5765 5762 5760 5758 5755 5752 5751 5749 5747 5745 5742 5740 5737 5735 5732 5729
5814 5814 5813 5812 5810 5809 5809 5808 5806 5803 5800 5797 5792 5789 5786 5784 5782 5781 5780 5779 5777 5774 5772 5770 5767 5766 5764 5762 5760 5757 5754 5752 5750 5748 5745 5743 5741 5737 5735 5733 5730 5727 5725
5805 5806 5807 5807 5806 5806 5804 5803 5801 5800 5797 5793 5789 5786 5783 5781 5780 5778 5777 5775 5773 5770 5768 5766 5764 5762 5761 5759 5757 5754 5751 5749 5747 5745 5743 5740 5738 5735 5732 5729 5725 5722 5719
5796 5798 5799 5800 5800 5799 5799 5798 5797 5795 5793 5789 5785 5783 5781 5780 5777 5775 5773 5771 5769 5767 5765 5762 5760 5758 5757 5755 5753 5750 5748 5745 5742 5741 5739 5737 5736 5734 5730 5727 5722 5718 5713
5789 5791 5793 5794 5794 5794 5793 5792 5791 5790 5788 5784 5781 5779 5777 5775 5772 5770 5768 5766 5764 5762 5760 5758 5755 5753 5753 5752 5750 5747 5743 5740 5737 5735 5734 5733 5731 5729 5726 5723 5719 5714 5709
5781 5782 5784 5787 5789 5789 5788 5786 5786 5785 5782 5778 5776 5774 5772 5769 5768 5766 5763 5761 5759 5757 5754 5752 5750 5748 5747 5747 5745 5742 5739 5735 5733 5730 5728 5727 5725 5722 5718 5716 5713 5709 5706
5774 5775 5777 5778 5780 5783 5782 5781 5779 5777 5774 5771 5769 5767 5766 5764 5762 5760 5757 5755 5753 5751 5749 5747 5745 5743 5743 5742 5739 5737 5733 5730 5728 5725 5723 5720 5717 5715 5711 5707 5704 5701 5699
5768 5770 5772 5772 5772 5773 5774 5771 5768 5767 5764 5763 5762 5761 5759 5757 5756 5753 5752 5750 5748 5746 5744 5741 5739 5737 5736 5735 5733 5730 5726 5722 5720 5720 5718 5714 5711 5709 5704 5700 5696 5694 5691
5763 5764 5765 5766 5765 5765 5765 5762 5760 5758 5757 5757 5757 5756 5754 5751 5749 5748 5746 5745 5743 5740 5738 5735 5734 5731 5729 5728 5726 5723 5719 5715 5713 5711 5710 5708 5705 5702 5697 5693 5689 5685 5683
5754 5756 5755 5755 5756 5757 5755 5751 5751 5751 5753 5753 5751 5749 5748 5746 5744 5741 5740 5738 5735 5733 5730 5728 5727 5725 5723 5721 5718 5715 5712 5708 5705 5703 5702 5701 5698 5695 5691 5688 5684 5681 5677
5744 5745 5743 5743 5747 5749 5746 5743 5742 5746 5746 5744 5742 5741 5740 5739 5737 5733 5731 5729 5726 5723 5721 5719 5717 5716 5715 5713 5711 5708 5705 5703 5699 5696 5695 5693 5690 5687 5684 5681 5679 5675 5670
5733 5734 5734 5734 5736 5738 5738 5735 5736 5737 5737 5735 5733 5732 5731 5730 5728 5725 5722 5719 5717 5714 5712 5709 5708 5707 5706 5705 5703 5700 5697 5695 5692 5690 5689 5686 5683 5680 5676 5674 5670 5667 5662
5721 5723 5724 5724 5725 5728 5729 5730 5729 5728 5727 5725 5724 5723 5721 5720 5718 5716 5714 5711 5708 5706 5704 5702 5700 5699 5697 5695 5693 5691 5688 5685 5682 5680 5678 5676 5673 5670 5667 5664 5661 5658 5654
5712 5712 5712 5714 5716 5717 5719 5720 5719 5718 5716 5715 5714 5713 5712 5710 5708 5706 5705 5703 5703 5701 5698 5696 5694 5691 5689 5688 5686 5682 5679 5676 5673 5669 5666 5663 5660 5658 5655 5653 5650 5647 5644
5701 5701 5702 5703 5705 5706 5708 5709 5708 5707 5705 5703 5702 5702 5701 5700 5698 5696 5694 5695 5694 5693 5692 5690 5687 5685 5683 5681 5677 5674 5671 5668 5664 5659 5656 5653 5650 5648 5646 5643 5640 5637 5634